Погода в Таунджи

Мьянма     20°47′40″N   97°02′23″E
темп.,
°C
ветер,
м/с
пор.,
м/с
влажн.,
%
обл.,
%
осадки,
мм/ч
давл.,
гПа
погр.,
м
26 февраля, пт
пт2600:30+15ю11517 0.0 100923
03:30+14ю12520 0.0 100724
06:30+13ююв12560 0.0 101023
09:30+24зюз23300 0.0 1011863
12:30+27з46180 0.0 10092589
15:30+27з55190 0.0 10052083
18:30+19з23370 0.0 100660
21:30+16ююв11450 0.0 100923
27 февраля, сб
сб2700:30+15ююв12470 0.0 100923
03:30+14вюв01477 0.0 100823
06:30+13юв11474 0.0 101023
09:30+26ю11260 0.0 1011545
12:30+30юз13180 0.0 10092855
15:30+28з53210 0.0 10052780
18:30+21з25331 0.0 1006113
21:30+17в11400 0.0 100923
28 февраля, вс
вс2800:30+16ююв11420 0.0 101023
03:30+15ююв11430 0.0 100823
06:30+14ююв11430 0.0 101023
09:30+26ююз12240 0.0 1012630
12:30+30юз23160 0.0 10092833
15:30+28з64200 0.0 10062670
18:30+21з23310 0.0 100858
21:30+17ююз11360 0.0 101023
1 марта, пн
пн100:30+16ююв12370 0.0 101023
03:30+15ююв12380 0.0 101023
06:30+14ююв12390 0.0 101223
09:30+26юз25230 0.0 1014968
12:30+29з55180 0.0 10122993
15:30+28зюз65180 0.0 10092864
18:30+21юз23290 0.0 101033
21:30+18ю12320 0.0 101323
2 марта, вт
вт200:30+17ююв22350 0.0 101324
03:30+15ю12440 0.0 101226
06:30+15ююв12520 0.0 101324
09:30+26ююз23280 0.0 1015890
12:30+30зюз46160 0.0 10123199
15:30+29з56180 0.0 10082940
18:30+22юз23280 0.0 100959
21:30+18ююз11350 0.0 101123